P/2008 A2 (LINEAR)

Epoch 2008 June 23.0 TT = JDT 2454640.5  

T 2008 June 12.03885 TT                                 Nakano

q   1.3054111            (2000.0)            P               Q

n   0.17267087     Peri.  233.16889     -0.95745735     +0.17436009

a   3.1939148      Node   315.52160     -0.00511606     -0.80695526

e   0.5912818      Incl.   19.15897     -0.28852945     -0.56428873

P   5.71 (+/- 0.05 day)

From 146 observations 2008 Jan. 13-Mar. 6, mean residual 0".54.

Residuals in seconds of arc 

2008/                     080118 673  0.8-  0.1+    080202 215  0.1+  0.3-  

080113 704  0.0   0.3+    080118 118  0.1-  0.7+    080202 A77  0.1-  0.3-  

080113 704  0.8+  0.3+    080118 118  0.1-  0.4-    080202 204  0.1-  0.1+  

080113 704  0.1+  0.8+    080119 673  0.8-  0.3+    080203 585 (0.6+  4.8+) 

080113 704  0.5-  1.2+    080119 673  0.6-  0.1-    080203 585  0.6+  0.1-  

080114 673  0.1+  0.0     080119 673  0.1-  0.4+    080203 585  0.7+  0.3+  

080114 673  0.0   0.1-    080119 673  0.1-  0.1+    080203 585  1.4+  0.5-  

080114 673  0.2-  0.3+    080119 734  0.0   0.0     080204 585 (1.9+  3.0-) 

080114 673  0.2-  0.1+    080119 734  0.2+  0.2+    080204 585  0.2+  0.8+  

080115 H55  0.0   0.1+    080119 734  0.2-  0.1-    080204 585  1.6-  0.3-  

080115 H55  0.0   0.2+    080120 673  1.6-  1.6-    080207 213  0.5-  0.4+  

080115 H55  0.2-  0.3+    080120 673  0.1+  0.1-    080207 213  0.5-  0.3+  

080115 G96  0.2+  0.5-    080120 673  0.4+  0.2+    080208 147  0.0   0.9-  

080115 G96  0.0   0.2-    080120 673  0.2+  0.5+    080208 147  0.1-  0.2-  

080115 701  0.5+  0.3-    080121 118  0.3-  0.1-    080209 673  0.3+  0.1+  

080115 G96  0.1+  0.4-    080121 118  0.2-  0.2+    080209 673  0.3-  0.3-  

080115 G96  0.1+  0.6-    080122 J70 (0.9-  6.8+)   080209 673  0.1+  0.1-  

080115 701  0.2+  0.5-    080122 J70 (5.7-  6.3+)   080209 673  0.2+  0.1+  

080115 701  0.3-  0.3-    080122 J70 (6.7-  5.4+)   080209 246  0.0   0.0   

080115 701  0.0   0.3-    080122 J70 (0.3-  7.8+)   080209 246  0.5+  0.5-  

080115 H06  0.9-  0.6-    080123 473  0.9-  0.6+    080209 246  0.0   0.3-  

080115 H06  0.0   0.3-    080123 473  1.0-  0.1+    080209 246  0.3-  0.0   

080115 B03  0.3+  0.4+    080125 147  0.0   0.2+    080209 246  0.2+  0.1-  

080115 B03  0.4-  0.4+    080125 147  0.8+  1.1+    080209 246  0.6-  0.0   

080115 B03  0.8-  0.3-    080126 J47  0.4+  0.3-    080209 246  1.1-  0.3+  

080115 B03  0.4+  0.4+    080126 J47  0.4+  0.1-    080211 585  0.5+  0.6-  

080116 J95  0.0   0.9-    080126 J47  0.3+  0.2-    080211 585  0.1-  1.8+  

080116 J95  0.7+  0.3-    080126 J47  0.7+  0.5-    080211 585  0.3+  0.8+  

080116 J95  0.2-  0.6-    080126 213  0.5+  0.9+    080211 585  0.3-  0.4+  

080116 H55  0.1+  0.0     080126 213  0.4+  0.8+    080211 585  0.7+  0.6-  

080116 H55  0.8+  0.6-    080126 213  0.4+  0.6+    080211 585  0.1-  0.8-  

080116 H55  0.6-  0.7+    080126 J47 (2.0+  1.6-)   080211 585  0.1+  0.5+  

080116 704  1.2+  0.3+    080127 349  0.3-  0.6+    080224 130  0.9-  0.6-  

080116 704  0.7+  0.2-    080127 349  0.0   0.8+    080224 130  0.1-  0.6-  

080116 704  0.4+  0.4-    080127 349  0.2-  1.0+    080224 130  0.5+  1.1-  

080116 673  0.3+  0.3+    080127 349  0.3+  1.2+    080224 130  0.4+  0.5-  

080116 673  0.1-  0.2+    080127 J36  0.4-  0.2-    080225 585  0.9-  0.2+  

080116 704  1.0+  0.0     080127 J36  0.0   0.0     080225 585  1.7-  1.3+  

080116 673  0.1-  0.6-    080127 J36  0.5-  0.4-    080301 J47  0.4-  0.9+  

080116 673  0.2+  0.1+    080128 104  0.5-  0.5-    080301 J47  0.5-  0.8+  

080116 704  0.1+  0.4+    080128 104  0.4+  1.1-    080301 J47  1.2-  1.1+  

080116 H06  0.1+  0.5-    080128 104  0.3-  0.0     080302 J47  0.5+  0.2+  

080116 H06  0.3-  0.3+    080129 204  0.0   0.2-    080302 J47  0.4+  0.2+  

080117 682 (2.4-  0.5+)   080130 J47  0.6+  0.3-    080302 J47  1.0+  0.1+  

080117 682  1.1-  0.2+    080130 J47  0.6+  0.6-    080305 118  0.5+  0.3-  

080117 F65  0.1+  0.1+    080130 J47  0.4+  0.6-    080305 118  0.2-  0.8-  

080117 F65  0.5-  0.2+    080131 118  0.4+  0.4-    080306 585  0.2-  1.3-  

080117 143  0.2+  0.3-    080131 118  0.5+  0.3-    080306 585  0.1-  0.4-  

080117 143  0.2-  0.4-    080202 A77  0.2+  0.2-    080306 585  0.1-  1.5+  

080118 673  0.4-  0.3-    080202 A77  0.2+  0.2-    080306 585  1.3+  0.8-  

080118 673  0.2+  0.2+    080202 215  0.2-  0.5-    080306 585  0.4+  0.2+  

080118 673  0.1-  0.3+    080202 215  0.0   0.4-                            



NAKANO

         **** Don't distribute anyone except personal use only ****

                (C) Copyright 2008 OAA/ComputingSection

write mail from CFAD0::NAKANO on 2008-03-30 06:44:05(JST).

 



    P/2008 A2 (LINEAR)

T 2008 June 12.03544 TT                                 Nakano

q   1.3054048            (2000.0)            P               Q

n   0.17259388     Peri.  233.16845     -0.95745900     +0.17432407

a   3.1948646      Node   315.51973     -0.00507215     -0.80695362

e   0.5914053      Incl.   19.16009     -0.28852477     -0.56430221

P   5.71 (+/- 0.17 day)

From 121 observations 2008 Jan. 13-Feb. 9.



NAKANO

         **** Don't distribute anyone except personal use only ****

                (C) Copyright 2008 OAA/ComputingSection

write mail from CFAD0::NAKANO on 2008-02-15 03:48:21(JST).

 





◎P/2008 A2の軌道と予報位置



 上尾の門田健一氏から2008年1月27日の観測が報告されました.氏のCCD全光度は

19.3等でした.彗星は,周期が5年半ほどの新周期彗星でした.



    P/2008 A2 (LINEAR)

T 2008 June 12.13608 TT                                 Nakano

q   1.3055456            (2000.0)            P               Q

n   0.17309364     Peri.  233.19335     -0.95737998     +0.17487749

a   3.1887120      Node   315.52857     -0.00559769     -0.80695607

e   0.5905727      Incl.   19.15532     -0.28877714     -0.56412744

P   5.69 (+/- 0.67 day)

From 84 observations 2008 Jan. 13-27.

 

Date/        TT  R.A.(2000) Decl.     Delta   r     Daily motion  Mag.  Moon Age

              h    h  m       。  ,                      ,  / PA 。  m1      。

2008 Jan. 30 14  05 40.53  +39 47.9   1.123  1.939    18.8 / 212  19.1  137  .46

          31 14  05 39.68  +39 31.9   1.123  1.932    18.6 / 210  19.1  149  .37

     Feb.  1 14  05 38.88  +39 15.8   1.124  1.925    18.4 / 208  19.1  159  .28

           2 14  05 38.14  +38 59.5   1.124  1.918    18.2 / 206  19.1  168  .20

           3 14  05 37.46  +38 43.1   1.125  1.911    18.0 / 204  19.1  167  .13

           4 14  05 36.84  +38 26.6   1.126  1.904    17.9 / 202  19.1  158  .07

           5 14  05 36.27  +38 10.0   1.128  1.897    17.7 / 200  19.0  146  .03

           6 14  05 35.76  +37 53.4   1.129  1.890    17.6 / 198  19.0  134  .00

           7 14  05 35.31  +37 36.6   1.130  1.884    17.4 / 196  19.0  121  .00

           8 14  05 34.92  +37 19.9   1.132  1.877    17.3 / 193  19.0  107  .02

           9 14  05 34.59  +37 03.1   1.134  1.870    17.2 / 191  19.0   94  .07

          10 14  05 34.31  +36 46.2   1.136  1.863    17.1 / 189  19.0   80  .14

          11 14  05 34.10  +36 29.4   1.137  1.856    17.0 / 187  19.0   66  .22

          12 14  05 33.94  +36 12.5   1.140  1.849    16.9 / 184  19.0   52  .32

          13 14  05 33.84  +35 55.7   1.142  1.842    16.9 / 182  18.9   38  .44

          14 14  05 33.79  +35 38.8   1.144  1.835    16.8 / 180  18.9   24  .55

          15 14  05 33.80  +35 22.0   1.146  1.828    16.8 / 177  18.9   12  .66

          16 14  05 33.86  +35 05.2   1.149  1.821    16.8 / 175  18.9    9  .76

          17 14  05 33.98  +34 48.4   1.151  1.815    16.9 / 173  18.9   20  .85

          18 14  05 34.15  +34 31.7   1.154  1.808    16.9 / 171  18.9   33  .92

          19 14  05 34.38  +34 15.0   1.157  1.801    17.0 / 168  18.9   47  .97

          20 14  05 34.65  +33 58.4   1.160  1.794    17.1 / 166  18.9   60 1.00

          21 14  05 34.98  +33 41.8   1.162  1.787    17.2 / 164  18.8   73 1.00

          22 14  05 35.36  +33 25.3   1.165  1.781    17.3 / 162  18.8   86  .98

          23 14  05 35.79  +33 08.8   1.168  1.774    17.5 / 160  18.8   99  .94

          24 14  05 36.27  +32 52.4   1.171  1.767    17.6 / 158  18.8  111  .88

          25 14  05 36.80  +32 36.1   1.174  1.760    17.8 / 156  18.8  123  .81

          26 14  05 37.37  +32 19.9   1.177  1.754    18.0 / 154  18.8  135  .73

          27 14  05 37.99  +32 03.7   1.181  1.747    18.2 / 152  18.8  147  .64

          28 14  05 38.66  +31 47.5   1.184  1.740    18.5 / 150  18.8  158  .55

          29 14  05 39.38  +31 31.5   1.187  1.734    18.7 / 149  18.8  170  .45

     Mar.  1 14  05 40.14  +31 15.5   1.190  1.727    19.0 / 147  18.8  176  .36

NAKANO

         **** Don't distribute anyone except personal use only ****

                (C) Copyright 2008 OAA/ComputingSection

write mail from CFAD0::NAKANO on 2008-01-29 05:02:19(JST).

 



戻ります。